GFSCGP_850_thetae_021.txt.gz
Theta_e
309 307 309 310 307 306 307 306 306 305 306 307 309 309 308 308 308 309 310 310 310 311 314 314 314 313 312 313 313 313 313 313 313 314 313 313 313 313 313 312 311 310 308 306
306 307 307 307 306 307 307 308 308 308 307 305 307 309 309 309 309 310 310 310 310 311 315 314 313 312 313 314 314 314 313 312 312 313 314 313 314 313 312 312 310 309 307 307
308 309 307 307 307 308 306 306 308 307 306 305 305 308 306 308 307 309 311 310 311 312 314 315 312 312 313 313 313 313 313 313 312 311 312 312 311 311 312 311 310 309 307 305
306 307 307 306 307 306 309 306 307 307 307 308 306 310 308 309 308 307 309 310 312 312 312 310 312 313 313 314 313 313 313 313 313 312 311 311 312 312 313 312 311 309 308 307
309 307 307 308 308 305 308 307 307 306 306 306 307 307 308 307 310 309 308 310 310 309 310 313 313 313 313 312 311 312 312 311 311 311 310 310 309 310 310 309 310 309 308 306
305 306 306 307 306 306 307 308 305 303 305 309 308 308 309 308 309 309 309 313 313 312 312 312 312 311 311 310 309 310 310 310 309 308 309 309 308 308 308 309 309 309 308 307
305 305 305 306 307 306 307 307 308 309 308 311 305 307 309 308 308 309 309 310 310 308 309 308 309 310 309 309 310 310 309 308 307 307 308 308 308 307 307 307 307 308 308 307
307 315 305 305 307 309 306 308 312 318 311 315 309 313 313 307 309 307 308 309 309 306 305 306 307 308 308 309 309 308 308 307 308 306 305 304 303 304 304 304 304 306 306 307
315 313 306 303 305 307 306 308 308 311 310 310 312 311 313 309 308 306 306 304 302 303 304 304 304 304 306 307 306 306 306 305 305 305 304 305 304 303 303 304 304 303 304 306
313 317 312 310 305 305 307 307 310 308 315 317 315 312 314 310 308 305 302 301 301 300 300 300 302 302 302 302 304 304 305 304 304 304 304 304 304 302 302 302 304 304 304 303
311 314 315 310 307 309 305 306 306 306 312 316 317 315 311 309 302 302 301 299 298 299 301 303 301 300 301 300 300 300 301 303 303 304 304 304 304 304 303 302 303 303 303 303
310 313 315 314 311 305 307 311 309 312 314 310 314 315 310 302 300 299 296 295 294 296 295 295 297 298 298 298 299 298 298 298 298 299 301 302 303 304 304 303 301 300 301 301
312 312 315 313 311 309 312 312 310 310 311 314 315 315 308 306 299 296 294 293 293 292 292 293 294 294 294 293 293 295 296 296 297 298 298 299 300 302 302 303 303 301 299 299
311 310 313 315 313 312 312 310 307 307 307 309 310 307 306 304 297 294 295 293 292 292 290 289 290 292 292 291 291 291 291 292 293 294 297 297 297 298 298 300 301 301 301 299
308 310 309 311 308 305 305 303 303 303 304 305 304 303 302 296 293 292 291 294 293 290 290 289 289 291 292 290 289 289 289 290 290 291 292 292 294 296 297 297 298 299 300 299
301 303 302 302 301 301 300 298 298 299 300 301 301 301 294 292 291 291 290 291 292 289 288 288 288 288 287 287 287 288 288 287 287 288 288 289 290 292 296 297 297 298 297 298
298 300 298 301 299 295 296 297 297 297 296 296 297 294 291 291 291 290 289 290 289 288 288 287 287 287 286 286 286 285 285 286 286 286 286 286 287 288 289 292 294 297 298 298
297 296 293 297 287 296 295 293 294 296 296 292 289 288 290 290 291 290 289 289 288 288 288 288 287 287 286 285 285 285 285 285 285 285 285 285 285 285 287 287 289 292 295 297
294 294 284 286 283 290 292 293 292 293 291 290 288 289 291 292 290 289 289 288 289 288 288 287 287 286 286 286 285 285 285 285 285 285 285 285 285 285 284 285 285 287 291 295
292 293 291 275 286 285 291 290 291 289 288 287 288 287 288 290 286 288 289 289 288 288 288 287 287 286 286 285 284 284 285 284 284 284 284 284 284 284 284 284 284 284 285 290
279 281 292 291 291 287 288 289 289 286 287 290 289 289 289 288 289 289 289 289 288 288 288 287 286 286 286 285 284 283 283 283 283 283 284 284 284 283 283 284 284 284 284 285
287 281 277 274 280 288 287 288 288 289 290 289 289 289 289 289 289 289 289 290 288 287 287 286 285 285 285 285 283 282 282 281 280 281 282 283 283 284 283 283 283 283 283 284
287 287 284 285 285 288 289 289 290 290 289 289 289 289 289 288 288 288 289 288 287 285 284 284 283 283 284 282 281 280 281 279 278 279 280 281 282 283 283 283 283 282 282 282
288 288 288 289 289 288 289 290 290 290 290 289 289 289 289 288 288 287 286 285 283 283 281 280 279 278 279 280 278 277 276 275 275 275 277 278 278 280 281 281 281 280 280 280
290 288 287 289 289 289 289 289 290 289 289 289 288 288 287 286 285 283 283 282 280 279 277 276 275 275 275 274 274 273 272 271 271 271 272 272 272 273 275 278 279 278 279 278
290 290 290 289 290 289 289 289 289 289 288 287 286 286 284 282 281 279 279 278 276 276 274 273 272 271 270 270 269 269 268 267 267 267 267 267 267 267 269 271 276 277 276 277

GFSCGP_850_thetae_024.txt.gz
Theta_e
312 314 314 315 314 315 314 313 314 314 314 312 313 313 313 312 312 312 313 313 314 313 313 311 311 311 312 312 312 312 312 312 312 312 312 312 313 313 314 314 314 314 313 311
311 313 314 313 312 312 313 313 314 314 313 311 313 313 313 313 313 313 313 313 313 313 312 311 311 311 311 311 311 310 311 310 310 311 311 310 311 311 312 313 314 314 313 312
314 315 311 311 312 312 313 313 313 314 312 311 311 314 314 315 313 312 312 312 311 311 310 309 310 311 311 311 310 310 309 310 310 309 308 308 308 309 309 310 312 313 313 312
312 311 310 310 311 312 314 314 312 311 312 313 310 315 316 315 315 313 313 311 311 310 308 308 307 309 310 310 309 309 310 309 309 308 307 307 307 309 309 309 309 310 311 312
314 311 310 311 312 311 313 309 309 310 311 311 313 313 318 311 315 315 313 310 308 306 305 305 305 305 306 308 309 309 309 308 307 306 306 306 306 305 304 305 308 308 308 309
310 307 308 311 308 309 308 310 310 309 311 315 316 314 316 315 314 314 313 306 305 304 303 303 304 307 308 307 307 307 307 307 308 307 306 305 304 304 304 305 305 304 305 306
316 314 308 307 310 308 309 311 316 320 318 320 310 315 314 314 312 311 307 305 304 303 302 303 305 305 305 307 307 306 306 305 305 306 305 304 304 303 303 303 303 303 303 304
317 319 309 307 311 314 310 314 321 324 324 323 318 321 319 314 310 306 305 305 303 302 301 301 301 303 303 303 303 303 304 304 304 304 304 303 303 303 302 302 302 302 302 303
318 318 310 306 307 311 314 313 313 316 317 318 318 318 316 311 311 307 306 305 302 301 300 299 302 302 302 302 302 301 302 302 303 303 303 303 303 303 302 302 301 301 302 302
315 319 316 313 306 307 310 309 313 315 319 321 318 316 316 314 311 309 306 303 300 299 298 298 297 297 299 300 301 301 301 301 300 300 300 301 301 302 303 303 302 300 300 301
314 315 315 314 313 314 308 311 313 313 316 318 318 315 313 312 308 307 303 299 298 297 296 296 296 297 297 297 298 298 298 298 300 299 298 299 299 300 300 302 303 302 300 299
313 315 316 316 314 311 312 314 315 316 315 313 313 314 309 307 304 301 298 296 296 294 293 293 293 294 294 293 293 294 296 297 296 295 296 296 297 297 298 299 300 301 302 301
313 314 315 316 313 310 311 312 312 312 312 315 316 317 308 302 300 298 296 295 294 294 292 291 291 291 294 291 289 290 291 291 291 292 293 294 294 294 294 296 298 298 299 299
310 312 312 314 314 313 313 312 311 311 312 312 312 310 309 308 305 297 294 294 293 291 290 290 290 290 290 288 288 288 287 287 288 288 288 289 290 291 290 291 293 297 298 298
307 309 309 310 310 310 308 307 306 306 306 307 306 306 305 304 296 294 291 292 294 290 289 289 289 289 288 288 288 287 287 287 287 287 287 286 287 287 288 288 288 289 292 298
302 305 305 303 304 304 304 303 303 302 301 301 301 301 302 294 292 293 291 291 292 291 289 289 289 288 288 287 287 287 287 287 286 286 286 286 286 286 286 286 287 287 287 288
299 301 302 303 302 300 300 300 300 300 300 300 299 298 294 293 292 292 291 290 291 290 289 289 288 288 288 288 286 286 286 286 285 285 285 285 285 285 286 285 285 285 286 286
297 299 299 300 297 299 300 297 297 297 298 296 295 293 293 292 291 291 291 290 290 290 289 289 288 288 287 287 286 286 286 285 285 285 285 285 285 285 285 285 285 285 284 285
295 296 297 295 297 297 295 295 295 295 296 295 293 292 291 290 291 291 290 290 289 290 289 288 288 288 287 287 286 285 285 285 285 284 284 284 284 284 285 285 285 285 285 284
292 294 295 287 294 293 294 292 291 291 294 293 291 291 290 290 291 291 290 289 289 289 289 288 288 288 287 287 285 285 284 283 283 283 283 282 282 283 283 284 284 285 285 285
291 291 294 295 294 293 294 291 291 293 294 293 291 291 290 290 290 290 289 289 289 288 288 289 287 287 287 286 284 283 282 281 280 279 280 281 281 281 281 282 283 283 284 284
291 292 291 288 291 292 290 290 291 293 291 290 290 290 290 290 289 289 289 289 289 288 288 287 286 286 285 284 281 280 280 279 278 277 277 277 277 278 279 279 281 282 282 282
291 292 291 289 291 291 289 291 291 291 291 290 290 290 289 289 288 288 288 287 287 286 285 284 282 281 282 280 278 277 277 276 275 275 274 273 273 272 273 273 274 274 277 278
291 291 290 291 292 291 290 290 290 290 290 290 289 289 288 288 287 287 286 285 284 283 281 280 279 279 279 277 275 273 273 272 271 270 270 270 269 269 269 269 269 270 271 273
291 290 290 291 291 290 290 290 290 290 290 289 289 288 287 286 285 283 283 282 281 279 278 276 275 274 275 273 273 271 271 269 267 266 266 265 265 265 266 266 267 268 269 270
291 291 291 291 291 291 290 290 290 289 288 288 287 286 284 283 283 282 280 278 277 276 275 274 273 272 272 270 270 269 267 265 263 262 262 263 263 263 263 264 264 266 267 269

GFSCGP_850_thetae_027.txt.gz
Theta_e
314 315 316 318 318 317 317 317 317 317 316 317 317 317 316 316 315 315 315 315 316 315 314 311 310 310 310 310 310 310 310 311 310 311 312 313 315 316 317 317 316 316 315 314
314 315 316 316 316 314 315 316 316 316 317 317 316 316 315 315 315 315 315 315 315 313 311 309 308 308 307 308 308 308 308 308 309 310 312 314 316 316 315 315 315 315 315 314
316 318 316 314 315 315 316 316 316 317 316 315 315 315 317 316 317 317 315 314 311 310 308 307 306 307 308 308 308 308 307 307 307 307 308 310 311 311 312 312 312 312 313 313
316 313 312 313 314 314 315 315 315 314 314 315 313 315 316 318 318 315 312 310 309 307 306 305 304 304 304 304 305 307 308 308 307 306 306 307 309 308 308 308 308 309 309 310
315 313 313 313 314 314 314 312 312 312 312 314 315 316 318 318 317 314 311 309 307 306 305 304 303 304 305 307 307 307 307 307 307 307 305 304 305 305 306 306 305 304 305 305
315 310 311 313 312 312 311 311 313 314 314 318 319 319 319 318 316 311 309 307 306 305 304 303 302 303 304 305 305 305 306 306 306 305 305 304 303 303 303 304 303 303 303 303
318 314 314 310 313 312 310 313 320 323 321 322 315 320 318 317 314 311 309 307 306 305 304 303 302 302 302 303 304 304 305 307 306 305 305 303 303 303 302 302 302 302 302 302
317 316 314 309 312 315 314 317 324 327 325 323 320 321 320 317 310 308 308 306 305 303 302 301 301 300 299 299 299 301 304 304 303 304 304 303 303 303 301 301 302 301 300 300
318 317 313 309 309 314 318 319 318 320 320 321 317 317 317 318 313 310 308 305 303 301 300 300 299 299 297 297 296 297 299 299 301 302 301 301 301 301 302 302 301 301 300 299
316 320 317 316 310 312 311 311 315 315 317 319 317 319 318 314 313 310 307 304 301 300 299 298 298 298 296 294 294 295 296 296 295 296 298 298 299 300 300 300 300 300 300 300
315 316 315 314 314 314 310 311 311 313 317 318 320 319 316 313 311 309 304 301 300 298 296 295 296 297 296 293 293 292 292 292 292 292 292 293 294 295 295 297 299 300 300 300
314 314 316 313 312 312 314 315 314 316 317 317 318 318 310 308 305 303 301 300 298 297 295 293 293 293 295 292 290 290 290 289 289 288 288 288 289 290 291 292 292 293 296 298
313 313 314 314 309 312 314 313 312 313 313 315 316 315 308 304 303 301 300 298 296 295 292 291 291 291 291 290 289 288 289 289 289 289 289 288 288 288 288 288 288 289 290 291
309 311 312 312 308 309 310 311 311 312 313 313 314 312 310 309 308 304 299 297 296 294 291 291 290 290 290 290 289 288 287 287 287 287 287 287 287 287 286 286 287 287 287 288
307 308 307 307 307 307 308 307 308 308 309 309 309 308 306 306 304 299 295 294 294 294 291 290 290 289 289 289 288 287 287 287 287 287 286 286 286 286 286 286 286 286 286 286
304 304 303 303 303 303 303 303 304 304 305 304 304 303 304 299 296 296 295 293 292 292 292 290 290 289 289 289 289 288 287 287 286 286 286 285 285 286 286 286 286 286 286 285
300 301 301 301 300 300 301 301 301 302 302 302 302 301 296 296 294 293 292 292 292 291 291 291 290 289 289 289 289 289 287 286 286 286 286 286 286 285 285 285 285 285 285 285
298 299 300 300 299 299 299 298 297 296 296 297 299 295 293 292 292 292 292 292 291 291 290 290 290 289 289 288 288 287 287 286 285 286 286 286 285 285 285 285 285 285 285 285
295 296 297 297 298 298 297 296 295 295 296 298 298 293 292 291 291 291 292 291 291 290 290 289 289 289 288 287 286 286 286 285 284 283 282 282 282 282 284 284 284 285 284 284
293 295 297 296 295 294 294 295 292 293 294 296 293 292 292 291 291 292 291 290 290 290 290 289 289 289 288 287 286 285 284 283 282 281 280 280 280 280 280 280 281 282 282 283
293 294 295 296 296 295 295 294 292 293 295 295 293 292 291 291 291 291 290 290 290 289 289 289 288 287 287 285 284 284 281 280 279 278 278 278 278 278 277 277 276 276 276 277
292 293 294 293 293 293 293 292 292 293 293 292 292 291 291 291 290 290 290 289 289 288 288 287 287 287 286 284 281 281 280 277 276 275 274 274 273 273 273 273 273 272 272 272
291 292 292 293 292 293 291 292 292 292 292 291 291 291 291 291 290 290 289 288 287 287 286 285 284 284 283 281 278 278 277 276 274 274 273 271 270 269 268 269 269 269 270 270
292 292 292 293 292 292 291 291 291 291 291 291 291 291 290 289 289 288 287 286 285 284 284 282 281 281 281 279 277 275 275 273 272 271 270 268 266 266 265 265 265 266 267 268
293 293 293 292 292 292 291 291 291 291 290 290 290 289 288 287 287 286 285 284 284 282 281 280 279 279 278 276 276 274 273 271 269 267 265 265 265 264 264 264 264 264 265 265
292 293 292 292 292 292 291 291 291 290 290 290 289 288 287 287 285 284 283 282 280 279 279 278 277 276 275 275 274 273 271 269 267 265 264 264 263 263 263 263 263 264 265 266

GFSCGP_850_thetae_030.txt.gz
Theta_e
314 314 314 315 315 316 315 314 314 315 315 314 315 315 314 315 315 315 315 315 315 309 309 310 309 308 309 310 310 311 312 311 312 313 314 317 320 321 321 321 321 320 319 318
314 314 315 315 315 314 314 314 314 314 315 314 313 314 314 313 314 314 314 312 310 308 307 306 306 306 306 306 306 307 308 310 310 310 313 315 316 317 318 318 318 318 317 316
315 317 316 316 315 315 314 315 314 314 313 313 312 312 313 314 315 311 310 308 307 306 305 305 305 305 306 306 306 306 306 307 307 308 310 311 313 315 316 315 315 315 315 315
317 315 314 313 313 313 314 314 313 313 312 312 310 311 313 313 312 309 308 307 306 305 304 304 304 305 305 305 305 305 306 306 306 306 307 307 308 309 308 308 308 307 309 311
315 312 312 313 314 314 314 312 312 311 311 311 312 312 314 314 310 309 308 306 305 304 303 303 303 303 303 303 304 303 304 304 303 305 305 305 305 305 306 306 306 306 305 304
312 311 311 313 314 311 311 310 310 310 311 314 315 315 316 313 310 308 308 306 305 304 303 302 302 302 302 302 302 303 303 303 304 303 302 302 302 302 303 304 304 304 303 303
316 314 311 312 313 310 310 310 315 318 314 317 316 317 317 317 310 308 307 306 304 303 303 302 302 302 303 304 304 304 304 303 303 301 302 301 301 301 302 301 301 301 301 301
317 316 313 309 313 314 312 316 317 319 319 318 314 316 318 311 308 308 306 305 303 302 301 300 300 300 300 301 301 302 302 302 301 301 301 300 300 300 300 300 301 300 300 300
314 316 309 309 309 311 316 318 317 319 312 316 315 314 313 309 308 307 305 303 301 300 300 299 299 298 297 296 296 296 296 296 296 298 299 299 299 298 299 299 299 299 299 299
316 317 317 313 311 311 313 311 316 315 313 308 312 312 313 312 310 306 303 301 300 298 297 297 297 297 295 293 292 291 290 290 290 290 291 292 294 294 295 296 297 296 296 297
315 316 315 314 312 313 309 310 310 312 312 313 313 311 311 310 310 306 302 301 299 297 296 295 294 295 295 292 290 289 289 289 288 288 288 288 288 289 290 292 292 293 293 293
313 314 313 313 311 309 310 311 312 316 313 312 313 314 309 305 303 303 302 301 298 297 295 293 292 291 292 290 289 288 288 288 288 287 287 287 287 287 287 287 288 288 289 289
312 311 306 305 307 311 312 311 312 311 310 312 314 312 309 303 303 303 303 300 298 296 292 291 291 290 289 289 289 288 288 287 287 287 287 287 286 286 286 286 286 286 286 286
308 310 305 306 306 306 306 306 307 306 309 308 307 307 305 306 305 304 301 298 297 295 292 291 291 290 289 289 288 288 288 288 288 287 287 287 287 286 286 286 286 286 286 286
306 302 304 304 305 304 303 303 304 305 304 304 304 304 304 305 300 297 295 294 294 295 294 292 290 290 289 289 289 288 288 288 288 287 287 287 287 286 286 286 286 286 286 286
304 297 299 295 300 301 301 301 301 301 301 301 301 301 301 297 296 296 296 294 292 291 291 291 291 290 289 289 289 289 288 288 288 288 288 287 287 286 286 286 286 286 286 286
299 296 291 292 298 296 293 297 298 299 299 299 299 298 294 295 295 293 292 292 292 292 291 290 290 290 290 289 289 288 288 288 286 286 287 287 286 286 285 285 285 285 285 285
297 295 294 290 290 291 295 297 295 295 295 294 293 289 291 292 291 291 291 291 291 291 290 290 290 289 289 289 289 288 287 286 285 285 284 283 282 282 282 283 283 284 283 283
296 296 294 290 289 293 295 294 294 292 291 292 293 291 292 291 291 291 292 291 291 290 290 290 289 289 289 289 289 288 287 285 284 282 281 280 280 279 279 279 279 279 279 280
292 293 293 286 288 286 293 292 293 292 290 292 294 290 292 291 287 288 291 291 290 290 290 289 289 289 289 288 287 286 285 283 281 280 279 278 277 276 276 276 276 276 277 277
286 286 291 292 292 290 292 293 292 289 291 294 293 291 291 289 290 291 291 290 290 289 289 289 289 288 287 286 285 283 281 280 279 278 278 278 277 276 274 273 272 271 271 272
289 286 286 285 285 289 293 291 291 292 293 293 291 291 292 291 291 291 291 290 289 289 289 288 288 287 286 284 282 282 281 279 278 277 277 276 276 274 273 271 270 268 267 267
288 290 287 289 289 292 292 292 292 292 292 292 292 291 291 291 291 290 290 289 289 288 287 287 287 286 283 282 281 281 279 278 277 276 276 275 273 271 269 268 267 266 266 265
291 291 290 290 291 291 291 291 291 291 291 291 291 291 290 290 290 290 289 289 287 287 286 286 284 283 282 281 280 278 277 276 275 275 274 272 269 268 267 266 266 265 265 264
291 291 290 290 291 291 291 291 291 291 291 291 291 290 290 290 289 289 287 287 286 285 285 283 281 281 281 279 278 277 275 274 274 273 272 270 267 266 265 265 265 264 265 265
292 291 291 291 291 291 291 291 291 291 291 291 290 290 290 289 287 286 286 285 285 284 281 281 280 280 279 278 277 276 274 273 272 271 270 267 265 265 265 264 264 266 265 266

GFSCGP_850_thetae_033.txt.gz
Theta_e
313 310 311 310 310 311 312 313 312 311 312 311 311 310 311 312 314 313 310 308 306 306 305 306 307 307 308 309 310 311 311 313 315 316 317 319 321 322 323 324 323 322 322 322
311 311 311 311 313 313 313 312 312 311 312 312 311 311 310 311 309 308 306 306 305 305 305 305 305 306 306 306 306 308 309 310 310 311 312 314 316 319 320 320 321 320 319 319
311 313 313 315 314 314 313 313 312 313 311 310 309 308 309 307 307 306 305 305 305 304 304 304 305 305 305 305 305 306 307 307 308 309 311 313 314 315 316 318 317 317 317 316
314 314 314 313 313 311 313 311 311 312 310 310 309 310 309 308 307 305 304 304 303 303 303 303 303 304 304 304 305 305 305 305 306 306 307 308 309 310 310 309 310 309 309 311
313 311 311 312 311 310 311 310 310 310 309 310 310 309 309 308 308 306 304 303 302 302 302 302 303 303 304 305 305 305 305 305 305 304 304 304 305 305 306 306 306 306 306 305
310 311 310 310 311 311 309 310 309 308 307 311 311 311 312 309 308 305 304 303 303 302 302 302 301 301 302 302 303 304 304 305 304 304 304 303 303 303 303 304 304 304 303 302
313 311 310 311 312 309 309 309 313 313 311 313 314 314 313 312 306 306 303 303 302 302 301 301 301 301 301 301 301 302 302 302 302 302 303 302 301 301 301 301 301 301 301 301
316 316 311 309 312 312 309 310 313 314 317 314 311 315 315 306 305 304 303 302 301 300 300 300 300 300 300 299 299 298 298 298 299 299 298 298 299 299 298 296 297 298 298 299
313 314 309 309 308 310 314 314 314 314 311 309 312 312 307 306 304 303 302 301 300 300 299 299 300 299 298 297 296 294 293 293 293 293 293 293 293 293 293 293 293 293 293 293
314 313 314 310 311 309 313 312 313 313 310 310 310 310 309 308 305 302 300 300 299 298 298 298 297 297 296 293 291 291 290 290 290 290 290 290 289 289 289 289 289 289 289 289
314 313 312 312 312 312 308 310 312 312 312 313 308 308 309 309 305 302 300 300 300 299 297 296 295 295 294 290 289 288 288 288 288 288 288 288 288 288 288 287 288 288 288 288
313 311 307 311 310 309 309 310 309 313 311 309 311 312 306 305 304 302 301 301 300 299 297 294 293 292 290 289 289 288 288 288 288 287 287 287 287 287 287 287 287 286 286 287
311 309 301 304 303 308 310 311 311 310 309 308 308 307 303 302 302 303 302 302 299 298 293 291 290 290 289 289 289 289 289 288 288 288 288 288 287 287 287 286 286 286 286 286
309 308 302 304 302 306 305 305 304 306 306 302 305 304 303 301 302 302 303 301 297 295 292 292 292 291 290 290 289 289 289 289 288 288 288 288 288 288 287 287 287 286 286 286
305 302 305 304 303 302 301 302 302 302 302 301 302 301 300 300 297 296 297 297 297 295 294 294 293 292 291 291 290 289 289 289 288 288 288 288 288 288 287 287 286 286 285 285
303 297 298 293 300 300 300 299 298 298 299 299 300 300 300 296 296 295 294 293 292 291 291 291 291 290 290 290 289 289 289 289 289 288 288 288 287 287 286 285 285 285 285 284
299 295 289 291 297 293 291 295 297 297 297 297 297 297 293 293 294 292 292 292 292 292 291 291 290 290 289 289 289 289 289 288 288 287 287 286 285 284 284 283 283 283 282 283
297 293 288 287 285 290 293 294 294 295 294 292 290 287 289 291 291 291 291 291 291 291 290 290 290 289 289 289 289 289 289 288 287 286 285 282 281 281 280 280 280 280 279 279
296 296 288 289 283 289 293 293 293 291 290 288 288 289 292 291 291 290 291 291 291 291 290 290 289 289 289 289 289 288 287 286 285 283 282 281 280 279 278 278 278 277 277 277
292 295 293 277 288 288 290 291 293 290 290 289 290 289 290 291 286 287 290 290 291 291 290 290 289 289 289 288 287 287 285 283 282 282 281 280 279 278 277 277 276 275 274 274
283 282 293 293 290 287 290 291 292 288 290 292 293 294 291 288 290 291 291 290 290 290 290 289 289 289 288 287 286 284 282 282 281 280 280 279 278 277 277 275 274 272 271 270
289 286 283 279 281 289 291 291 290 291 293 292 293 293 291 291 291 291 291 290 290 290 289 289 288 288 287 286 283 282 281 281 280 279 278 278 277 276 275 273 272 270 269 268
288 288 286 289 288 290 291 292 292 292 292 291 291 291 291 291 291 291 290 290 290 289 289 288 288 287 286 283 282 281 281 280 279 278 277 277 276 275 273 272 270 269 268 267
289 289 289 288 290 290 291 292 291 291 291 291 291 291 291 290 290 290 290 290 289 289 288 287 287 285 283 281 281 280 279 278 278 277 276 276 275 273 272 270 269 267 268 266
290 289 288 289 290 291 291 291 291 291 291 291 291 291 291 291 290 290 289 289 288 287 287 285 284 282 281 281 280 279 278 278 277 276 276 275 273 272 270 268 268 267 268 265
292 291 291 291 291 291 291 292 291 291 291 291 291 291 290 290 290 289 288 287 286 285 285 284 282 281 280 281 280 278 277 276 276 276 275 274 273 271 268 267 267 270 268 266

GFSCGP_850_thetae_036.txt.gz
Theta_e
312 309 309 308 308 309 311 311 311 310 310 311 311 310 310 310 311 308 305 305 304 303 303 304 305 306 306 308 309 310 313 315 316 318 321 322 323 323 323 323 322 322 322 321
310 310 310 310 310 310 311 312 311 310 310 311 310 310 307 305 305 304 304 304 303 302 303 303 304 304 305 306 307 308 309 310 311 313 314 314 316 320 319 320 320 319 319 318
311 313 311 312 314 314 312 312 312 313 310 309 308 308 308 306 305 304 303 302 301 301 301 301 303 303 305 305 305 305 306 306 307 309 311 313 314 315 317 318 316 316 316 316
311 311 312 312 313 312 313 310 311 311 310 310 307 309 308 307 304 302 301 301 301 301 302 303 304 304 305 304 305 306 306 306 305 305 306 307 308 310 309 309 311 312 312 310
314 312 311 312 312 309 311 310 310 310 309 309 308 308 307 306 306 303 301 301 301 301 301 301 302 302 302 303 303 303 304 305 306 305 305 304 304 303 304 305 305 305 306 306
310 310 309 310 310 310 308 309 308 305 306 309 307 309 310 308 307 303 301 301 301 300 300 300 300 300 301 302 302 302 302 302 302 302 303 304 303 303 303 302 302 302 301 302
312 310 310 310 311 308 308 308 312 312 309 312 311 309 310 306 305 303 301 301 300 300 300 300 299 300 300 300 300 299 299 300 299 299 299 299 299 300 300 300 300 301 301 300
316 316 310 309 310 311 308 309 309 307 313 312 310 315 313 303 303 303 302 302 300 300 300 300 300 300 299 298 298 297 296 296 295 294 294 293 293 292 292 291 291 291 292 294
313 313 308 308 308 310 312 312 311 312 308 313 311 309 307 303 301 301 301 300 300 300 300 300 301 301 299 297 295 295 293 292 292 291 291 291 290 290 289 289 289 288 288 288
312 311 312 310 310 308 312 309 312 310 307 311 309 310 309 306 303 301 299 299 299 300 301 300 300 300 298 295 293 292 292 291 290 289 289 289 289 288 288 288 287 287 287 287
312 311 311 310 312 312 308 311 311 310 310 307 305 308 307 306 304 301 299 300 300 301 301 299 298 297 295 292 290 290 290 290 290 290 289 289 288 288 288 288 287 287 287 287
311 309 307 311 309 308 308 308 309 313 310 308 309 310 306 305 303 302 301 303 302 300 299 297 295 294 292 290 289 289 289 289 289 289 288 288 288 288 288 288 288 288 288 287
310 306 301 304 304 307 309 309 308 307 306 304 311 308 303 303 302 303 303 302 302 300 297 294 293 291 290 289 289 289 289 288 288 288 288 288 288 288 288 288 287 287 287 287
309 305 304 306 302 305 305 305 304 304 304 303 307 305 303 302 300 301 301 301 302 299 296 294 292 292 290 290 290 289 289 289 289 289 288 288 288 287 287 287 286 285 285 285
305 303 304 305 303 303 302 304 303 303 303 303 303 301 301 299 297 298 298 299 299 297 294 293 293 292 291 291 290 290 289 289 289 289 288 288 288 287 286 285 284 284 284 283
302 298 298 294 299 301 301 300 299 300 300 300 300 300 299 298 297 295 295 297 297 296 294 293 293 293 291 290 290 289 289 289 289 289 288 288 287 286 284 284 283 283 283 282
301 297 294 297 296 293 293 294 296 296 296 296 295 295 292 294 294 294 294 293 293 292 291 291 291 290 290 289 289 289 289 289 289 288 288 287 285 283 283 282 282 282 282 281
298 295 291 289 287 290 294 292 293 294 294 293 290 286 290 293 294 293 292 292 291 291 291 291 290 290 290 289 289 289 289 289 288 287 286 284 283 282 282 281 281 280 281 281
296 295 288 290 286 289 294 292 292 292 291 288 288 287 291 292 290 290 291 291 291 290 290 290 290 290 289 289 289 289 289 288 287 285 283 282 282 281 280 280 280 279 279 279
293 295 293 279 285 288 291 291 292 291 289 289 289 288 290 290 285 288 291 290 290 290 290 290 290 290 289 289 289 288 287 286 284 283 282 282 281 280 280 279 278 278 277 276
284 285 296 294 287 285 289 291 292 288 290 292 292 293 291 288 291 293 291 291 291 290 290 290 290 289 289 288 288 287 286 284 283 283 282 281 280 279 279 278 277 277 276 275
289 288 286 285 286 288 289 289 290 291 291 292 292 292 292 292 292 292 291 291 291 290 290 289 289 289 288 287 287 287 285 283 282 282 281 280 279 279 278 277 277 276 275 273
289 288 286 288 288 290 290 293 293 293 293 292 292 292 291 291 291 291 291 291 290 290 289 289 288 288 287 286 285 285 283 282 282 281 280 279 278 277 277 276 276 274 273 271
289 288 288 287 289 289 291 293 292 292 292 291 291 291 291 291 291 291 290 290 290 289 289 288 287 286 285 285 285 281 281 281 281 280 279 278 277 277 276 276 274 273 273 270
290 288 287 288 290 290 290 291 291 292 291 291 291 291 291 291 290 290 290 290 289 289 288 287 286 284 283 284 283 280 280 280 279 278 278 277 277 277 276 274 273 273 272 268
292 291 290 290 291 291 291 292 291 291 291 291 291 291 291 291 291 290 290 289 288 288 287 286 284 283 283 282 280 279 279 278 278 277 277 276 276 275 274 273 273 274 272 270

GFSCGP_850_thetae_042.txt.gz
Theta_e
310 307 308 308 307 308 308 309 310 309 309 310 309 308 305 302 303 302 301 301 301 302 302 303 305 306 306 308 309 310 313 318 321 322 323 323 323 322 319 317 318 319 319 320
308 307 307 307 306 308 309 310 309 309 309 309 309 308 303 302 301 301 300 300 300 301 302 303 304 305 306 306 306 307 307 307 308 309 309 311 312 314 316 314 315 315 315 316
309 311 308 309 308 309 309 309 310 312 309 307 306 307 305 301 301 300 300 300 300 300 301 302 303 303 304 304 304 304 304 304 305 305 306 307 308 312 313 313 312 311 311 312
308 309 310 309 310 309 312 309 310 312 309 312 306 311 307 303 301 300 299 299 300 299 300 300 301 302 302 302 302 303 304 304 303 304 304 304 304 304 304 304 305 305 305 305
314 310 310 311 312 310 313 307 308 308 307 308 308 309 306 303 303 300 299 299 299 299 300 300 300 300 300 301 303 303 303 303 302 302 302 302 302 301 301 301 301 300 300 300
311 308 309 310 307 309 305 307 306 303 304 309 308 308 308 305 305 300 299 299 299 298 299 299 299 299 299 300 301 300 301 300 299 299 299 299 298 297 297 296 296 295 294 294
310 309 308 308 308 307 308 310 313 310 309 312 306 306 307 306 303 301 300 300 299 298 299 299 298 298 298 298 298 297 297 298 297 296 296 295 295 294 294 293 292 292 291 291
313 315 309 307 310 309 308 310 312 309 309 309 307 312 312 302 300 302 302 301 299 299 298 298 298 298 298 297 296 296 296 296 295 294 294 293 292 292 292 291 290 290 290 289
313 315 306 307 307 308 308 310 307 308 300 307 308 307 304 301 300 299 300 300 299 298 299 299 299 299 298 296 295 294 294 294 293 293 292 291 291 290 290 290 289 289 289 289
312 312 309 307 308 307 309 307 312 307 307 305 306 307 306 304 301 299 298 299 299 299 299 298 299 299 298 295 294 293 293 292 292 291 291 290 290 290 289 289 289 288 288 288
308 311 310 309 309 309 310 310 308 308 304 303 301 304 303 305 301 300 299 301 300 300 300 299 300 299 297 295 293 292 291 291 290 290 290 289 289 289 288 288 288 287 286 286
309 309 309 310 306 305 308 309 309 310 309 305 306 309 302 303 301 301 301 302 302 301 300 300 300 299 298 296 293 291 290 290 289 290 289 289 289 289 288 288 287 286 286 285
309 309 304 307 307 306 308 306 308 305 302 304 306 307 301 302 301 303 303 303 303 302 300 300 299 299 297 296 293 290 289 289 289 289 289 289 288 288 288 288 287 286 285 285
310 307 307 312 309 307 308 307 305 306 304 306 309 308 306 303 302 301 302 303 302 302 301 301 299 298 297 295 291 290 290 289 289 289 289 289 288 288 288 288 287 285 284 284
309 312 305 304 303 303 303 306 306 305 309 309 309 307 303 303 301 303 303 302 301 299 299 299 299 298 296 294 291 290 290 290 289 289 289 289 288 288 288 288 287 285 284 283
301 305 300 299 300 299 303 303 303 305 303 303 303 303 301 302 303 302 302 299 298 298 297 297 298 297 295 293 292 291 290 290 289 289 289 288 288 288 288 288 286 284 283 283
302 299 300 304 294 298 305 299 303 302 301 302 304 304 292 294 296 298 297 297 297 296 295 296 296 297 295 293 292 291 291 290 289 289 289 288 288 288 288 288 285 283 283 283
298 297 299 295 294 305 300 291 294 300 299 297 292 291 292 293 295 295 295 294 294 294 294 294 295 295 293 291 291 290 290 290 289 289 288 288 288 288 288 287 284 283 282 282
297 298 294 300 297 297 298 291 291 292 293 292 293 292 292 293 291 292 293 293 292 293 293 293 292 291 291 290 290 290 290 289 289 288 288 288 288 288 287 285 283 282 282 282
296 297 305 291 300 300 294 290 291 292 292 289 292 290 290 290 287 287 292 291 292 292 292 291 290 290 290 290 290 290 290 289 289 288 288 288 288 287 285 283 282 282 281 281
295 296 302 295 300 296 291 290 291 291 292 289 291 292 290 288 291 292 291 291 292 292 292 291 290 291 290 290 289 289 289 289 288 288 287 287 286 285 283 283 281 281 280 280
293 296 296 296 296 297 289 289 292 292 292 294 293 293 292 292 292 291 291 291 292 292 291 291 291 290 290 290 289 289 289 288 288 287 286 285 284 284 285 281 280 280 279 279
291 291 291 294 294 290 290 293 294 294 294 293 293 293 292 292 291 291 291 291 291 291 291 291 290 290 290 290 289 289 289 288 287 285 284 284 285 282 280 280 279 279 278 278
288 287 289 290 289 289 291 293 293 293 293 293 293 293 291 291 291 291 291 291 291 290 290 290 290 290 290 290 289 289 288 286 285 284 284 284 284 282 280 279 278 278 277 277
290 288 287 288 290 290 291 292 293 292 292 291 291 292 291 291 291 291 291 290 290 290 290 290 290 290 289 289 289 288 286 285 284 284 283 283 282 281 279 278 277 277 276 276
289 289 289 289 291 292 293 294 292 291 291 291 291 291 291 291 291 291 291 291 290 290 290 290 290 289 289 288 287 286 285 284 283 282 282 281 280 277 277 277 277 275 275 275

GFSCGP_850_thetae_045.txt.gz
Theta_e
309 308 310 308 307 309 307 309 311 309 309 311 310 309 304 302 302 301 300 300 301 302 303 304 306 307 308 310 313 317 320 322 322 322 322 322 321 320 318 316 316 317 317 317
307 307 308 306 306 308 307 309 309 308 308 308 309 308 303 301 301 301 299 299 300 300 302 303 304 305 305 306 306 306 307 308 307 307 307 308 310 310 310 310 311 313 313 314
308 311 306 307 306 307 307 308 308 311 309 306 306 308 305 301 300 300 299 299 300 301 302 302 303 303 303 304 305 305 305 305 305 305 305 305 305 307 309 308 307 306 307 307
308 308 310 308 308 307 309 307 308 309 311 313 306 313 307 302 301 299 299 299 300 301 301 301 301 302 303 304 304 303 303 302 302 303 303 303 303 304 303 303 303 303 302 302
314 309 310 310 310 308 311 307 308 308 307 308 308 310 308 302 302 300 298 299 299 299 300 300 300 301 303 302 302 301 301 301 300 301 301 301 301 301 300 299 299 298 298 298
311 309 308 310 308 308 304 306 305 303 305 311 309 310 309 305 304 301 299 299 299 298 297 298 298 299 301 300 300 299 300 299 298 298 298 298 297 296 295 294 294 293 292 292
309 308 307 307 307 306 307 310 313 311 311 314 306 307 309 305 303 302 300 299 299 298 297 298 298 299 299 299 299 298 297 298 296 296 295 295 294 294 294 293 292 292 291 291
314 314 308 305 308 308 308 310 314 314 310 309 307 311 311 303 302 302 301 301 300 298 297 297 298 298 298 298 297 296 295 295 294 294 294 293 293 294 294 292 292 291 291 290
312 314 306 306 306 307 308 310 308 308 300 309 309 307 305 301 300 299 300 300 299 298 298 298 298 298 298 296 295 294 294 293 293 293 293 292 292 292 291 291 290 289 288 288
311 312 308 306 307 307 308 307 312 308 310 309 307 307 308 305 302 298 297 299 299 298 298 298 299 299 298 296 295 293 293 292 293 292 291 291 291 290 290 289 289 288 288 287
309 311 310 307 308 310 309 310 308 308 306 307 305 306 302 304 302 300 299 300 300 299 299 299 300 300 298 296 294 293 292 291 291 291 291 290 290 289 289 289 288 288 287 286
308 309 309 309 306 304 308 309 308 310 308 304 306 308 302 302 301 301 300 301 301 300 300 300 300 300 299 298 295 293 291 291 290 290 290 290 289 289 289 289 288 288 287 286
309 310 307 308 308 306 307 307 307 305 304 305 308 306 301 301 300 302 302 302 302 301 300 300 299 299 300 298 296 293 291 290 290 289 289 289 289 289 289 288 288 288 287 286
310 309 313 318 312 308 308 307 306 309 304 307 309 306 304 303 302 301 302 303 303 302 302 301 300 300 299 298 296 293 291 289 289 289 289 289 289 289 288 288 288 288 287 286
309 315 306 303 303 304 304 307 306 308 310 311 309 308 304 305 303 304 305 303 303 302 301 300 300 300 299 297 296 293 290 289 289 289 289 289 289 289 288 288 288 288 288 286
304 310 305 304 301 300 305 304 305 306 306 307 305 306 303 305 303 302 304 302 302 301 300 299 298 297 298 297 296 294 291 289 289 289 289 289 289 288 288 288 288 288 288 286
308 303 309 311 297 300 308 303 303 303 301 306 306 306 295 297 298 302 303 302 301 300 298 297 296 295 295 297 296 294 291 290 290 290 289 289 289 288 288 288 288 288 287 285
304 306 307 298 298 308 300 292 298 303 302 298 293 291 296 298 299 299 299 298 297 297 295 294 293 293 294 295 294 292 292 291 291 290 290 289 288 288 288 287 287 287 286 284
296 302 298 303 302 302 296 291 293 298 298 296 298 296 293 293 294 294 295 295 294 292 292 292 292 293 294 294 293 291 290 290 290 289 289 289 288 288 287 287 286 286 285 283
297 298 305 296 305 306 296 290 291 293 295 289 296 292 290 291 290 290 294 292 292 292 292 292 292 292 291 291 290 290 290 290 289 289 289 288 288 287 286 286 285 285 285 286
298 299 305 300 303 300 293 289 292 296 296 289 292 292 291 289 294 293 292 292 291 291 291 291 292 291 291 290 290 290 290 289 289 289 288 288 287 286 286 285 284 285 285 282
298 301 301 299 300 303 290 289 295 294 291 294 294 294 293 295 294 292 292 291 291 291 291 291 291 291 290 290 290 290 290 289 289 288 288 287 286 285 285 284 285 285 282 282
297 298 299 299 300 291 291 292 294 294 294 293 294 294 294 294 292 292 291 291 291 291 291 291 291 290 290 290 290 290 290 289 289 288 287 286 285 284 284 284 285 283 281 280
289 288 292 293 291 290 290 293 293 294 294 293 293 293 292 292 292 291 291 291 291 291 291 291 290 290 290 290 290 290 289 289 288 287 286 285 284 283 283 284 283 282 280 278
291 290 289 290 289 290 291 292 293 293 293 292 292 291 291 292 291 291 291 291 291 291 290 290 290 290 290 290 289 289 288 288 287 286 285 284 283 282 283 282 281 279 277 277
288 289 290 291 291 292 293 294 294 293 293 292 290 290 290 291 291 291 291 291 291 291 290 290 290 290 290 289 289 289 288 287 286 285 284 283 282 282 282 281 279 277 276 276

GFSCGP_850_thetae_048.txt.gz
Theta_e
312 316 317 318 317 316 316 315 317 314 312 314 316 316 315 307 306 306 304 302 301 303 305 306 307 311 317 320 320 322 321 321 322 322 322 322 321 320 318 314 314 315 315 316
312 315 317 313 313 313 313 315 316 313 311 312 315 315 314 307 307 306 304 302 301 300 302 305 307 309 311 313 315 317 317 318 318 316 314 312 310 308 308 308 310 310 311 312
316 315 311 311 311 312 313 315 316 316 312 311 312 316 312 305 304 302 301 301 301 301 301 302 304 305 306 306 306 306 306 306 306 305 306 306 305 306 306 306 305 305 305 305
313 311 310 311 312 312 315 311 312 312 314 319 310 322 314 308 306 303 301 301 300 299 300 301 302 304 304 304 303 303 303 303 303 304 304 304 304 304 303 302 302 302 302 301
315 311 312 314 313 311 316 311 312 312 314 314 313 316 318 307 308 305 303 302 301 299 298 300 301 302 302 302 302 301 300 300 301 302 302 301 301 301 299 298 297 296 295 295
314 309 312 314 309 311 308 310 309 310 313 317 317 316 318 312 310 307 303 302 300 298 298 299 300 301 301 300 300 299 299 299 299 299 299 299 298 297 296 295 295 294 293 293
315 312 309 308 312 308 311 314 319 319 318 319 310 313 317 311 307 306 304 302 300 298 298 298 299 299 299 298 298 298 298 299 298 298 298 297 296 295 295 295 294 293 292 292
320 321 311 309 316 314 311 317 322 324 319 318 309 315 315 307 305 303 304 302 300 297 297 298 299 299 299 298 298 298 298 299 297 296 296 294 294 294 294 293 292 291 291 290
319 319 309 308 308 312 311 313 313 313 307 317 316 313 311 305 304 303 303 301 300 298 297 298 298 299 298 298 297 297 297 296 295 294 294 293 293 292 292 292 291 290 290 289
315 321 309 308 309 309 310 312 315 315 321 322 314 313 316 308 307 303 301 301 300 298 298 297 297 299 299 297 296 295 294 294 293 293 292 292 292 291 291 290 290 289 289 288
312 314 312 308 310 314 311 312 312 315 316 320 318 313 310 310 309 305 303 302 301 299 298 298 299 300 299 296 295 294 293 292 292 292 291 291 291 290 290 289 289 289 288 288
314 314 316 312 308 306 312 313 313 318 314 311 312 316 306 307 307 306 304 302 301 300 299 300 300 300 298 297 294 293 292 291 291 291 290 290 290 290 289 289 289 288 288 288
313 315 320 315 310 307 310 311 313 313 313 317 319 318 305 304 304 304 304 302 301 300 299 299 299 300 299 297 295 293 292 291 291 290 290 290 290 289 289 289 288 288 288 288
313 316 319 323 319 314 312 312 311 313 318 317 315 314 308 307 306 304 303 302 301 301 300 299 298 299 299 298 297 295 293 291 290 290 289 289 289 289 289 289 288 288 288 288
312 316 316 317 309 312 314 313 312 313 314 317 317 313 310 309 307 306 305 303 302 301 299 299 299 299 299 298 298 296 294 292 290 289 289 289 289 289 289 289 288 288 288 288
308 316 315 315 308 307 310 312 312 312 313 314 313 312 310 308 306 305 304 302 302 302 302 301 300 300 300 300 299 297 296 293 290 289 289 289 289 289 289 289 288 288 288 288
310 313 312 317 311 306 310 310 311 311 312 313 313 313 306 304 305 305 304 303 304 302 302 302 301 300 299 298 297 297 296 294 290 289 289 289 289 289 289 288 288 288 287 287
310 312 312 306 304 313 310 298 307 309 309 307 304 305 306 305 304 304 305 305 303 303 302 300 298 297 295 294 294 296 295 294 290 289 289 289 289 289 289 288 288 287 287 287
299 307 302 306 308 310 299 296 303 307 309 305 306 302 298 297 297 297 301 302 303 302 298 297 294 293 292 292 293 294 294 292 290 290 290 290 290 289 288 288 287 287 286 286
299 301 310 302 312 314 306 294 293 298 305 300 303 299 294 294 302 302 297 296 296 295 293 292 292 292 292 292 293 294 293 292 291 290 290 289 289 288 288 287 287 286 285 285
302 302 307 305 309 306 300 293 293 304 308 294 300 297 293 297 300 297 295 295 293 292 292 292 292 292 292 292 292 292 291 290 290 290 289 289 289 288 288 287 286 285 285 284
304 305 306 302 307 309 292 291 299 298 292 295 294 297 296 295 294 294 294 292 292 292 292 291 291 291 291 291 291 290 290 290 290 290 289 289 288 288 287 286 285 285 284 284
303 303 305 305 306 293 292 293 294 294 295 293 295 295 295 293 293 293 292 292 292 291 291 291 291 291 291 291 290 290 290 290 290 289 289 288 288 287 286 285 284 283 283 284
292 290 296 299 294 292 292 294 294 294 295 295 295 295 294 294 293 292 291 291 291 291 291 291 291 291 290 290 290 290 290 290 289 289 288 288 287 286 285 284 283 283 283 282
294 292 292 292 290 291 291 292 294 294 294 293 293 293 293 293 292 292 291 291 291 291 291 291 291 291 290 290 290 290 290 289 289 288 288 287 286 285 284 283 283 283 282 281
291 291 293 296 293 295 295 297 295 293 293 292 293 292 291 291 291 291 291 291 291 291 291 291 290 290 290 290 290 289 290 289 289 288 287 286 285 284 283 282 282 282 281 279